Regional Weather Roundup
Issued by NWS Charleston, SC

Current Version | Previous Version | Graphics & Text | Print | Product List | Glossary On
Versions: 1 2 3 4 5 6 7 8 9 10 11 12 13 14 15 16 17 18 19 20 21 22 23 24 25 26 27 28 29 30 31 32 33 34 35 36 37 38 39 40 41 42 43 44 45 46 47 48 49 50
000
ASUS42 KCHS 311913
RWRCHS

REGIONAL WEATHER ROUNDUP
NATIONAL WEATHER SERVICE CHARLESTON SC
300 PM EDT WED AUG 31 2016

NOTE: "FAIR" INDICATES FEW OR NO CLOUDS BELOW 12,000 FEET WITH NO
SIGNIFICANT WEATHER AND/OR OBSTRUCTIONS TO VISIBILITY.

NOT ALL STATIONS ARE QUALITY CONTROLLED. USE DATA WITH CAUTION...
ESPECIALLY DEWPOINT OBSERVATIONS.

SCZ027-030-031-034>040-042>050-312000-
...SOUTHEAST SOUTH CAROLINA...

CITY           SKY/WX    TMP DP  RH WIND       PRES   REMARKS
N CHARLESTON   PTSUNNY   85  72  65 E14G24    29.92F HX  91
WATERFRONT PRK   N/A     78  76  94 E10       29.91F
MOUNT PLEASANT FAIR      82  75  78 E9        29.92F
JOHNS ISLAND   MOCLDY    81  77  89 E14G21    29.91F
PINOPOLIS        N/A     86  73  66 SE7       29.86F HX  93
MONCKS CORNER  CLOUDY    84  70  61 SE13G18   29.92F
SUMMERVILLE    MOCLDY    88  72  58 E12G18    29.92F HX  94
BEAUFORT MCAS  PTSUNNY   85  74  69 E13       29.90F HX  92
BEAUFORT ARPT  FAIR      82  73  74 E14G22    29.90F HAZE
HILTON HEAD IS PTSUNNY   88  75  66 NE14      29.90F HX  97
WALTERBORO     MOCLDY    90  70  51 SE14      29.91F HX  95
ALLENDALE      CLOUDY    88  70  55 NE7       29.89F HX  92

...SOUTHERN MIDLANDS AND PEE DEE...

CITY           SKY/WX    TMP DP  RH WIND       PRES   REMARKS
GEORGETOWN     FAIR      84  73  70 SE12G17   29.95F HX  91
KINGSTREE      FAIR      88  68  51 E9        29.92F HX  91
ORANGEBURG     PTSUNNY   90  69  50 VRB6      29.91F HX  94
BARNWELL       NOT AVBL
AIKEN          TSTM      75  72  88 N21G28    29.98R
MANNING        FAIR      88  70  55 S5        29.92F HX  92
COLUMBIA       PTSUNNY   89  72  56 E16       29.92F HX  96
SUMTER         PTSUNNY   84  73  68 E3        29.90F HX  91
FLORENCE       CLOUDY    90  67  46 SE10      29.93F HX  93
MYRTLE BEACH   PTSUNNY   84  70  61 SE7       29.96F
N MYRTLE BEACH CLOUDY    83  74  74 VRB6      29.95F

$$

GAZ063-065-086>088-099>101-113>116-118-119-134>141-150-312000-
...SOUTHEAST GEORGIA...

CITY           SKY/WX    TMP DP  RH WIND       PRES   REMARKS
SAVANNAH ARPT  CLOUDY    85  71  63 E15       29.89F HX  90
HUNTER AAF     PTSUNNY   80  80 100 E6        29.87F
FORT STEWART   LGT RAIN  79  73  83 NE8       29.87S
STATESBORO     MOSUNNY   90  74  59 E6        29.88F HX  99
SYLVANIA       NOT AVBL
CLAXTON        CLOUDY    83  76  78 SE6       29.89S HX  91

...CSRA...CENTRAL AND FAR SOUTHEAST GEORGIA...

CITY           SKY/WX    TMP DP  RH WIND       PRES   REMARKS
THOMSON        MOSUNNY   93  71  48 CALM      29.95F HX  99
AUGUSTA-BUSH   MOSUNNY   93  69  45 E9        29.89F HX  98
AUGUSTA-DANIEL MOSUNNY   92  66  42 SE12G17   29.91F HX  94
SWAINSBORO     CLOUDY    91  68  46 NE12      29.89F HX  95
VIDALIA        CLOUDY    86  79  79 E7        29.89S HX  99
EASTMAN        MOCLDY    90  57  32 E7        29.91F
HAZLEHURST     CLOUDY    83  77  83 CALM      29.89S HX  92
ALMA           HVY RAIN  75  75 100 VRB5      29.89F FOG
WAYCROSS       PTSUNNY   89  79  72 NW9       29.87F HX 104
JESUP          MOCLDY    79  79 100 NE5       29.89F
BAXLEY         HVY RAIN  77  77 100 NE3       29.90F
BRUNSWICK      CLOUDY    88  77  70 N3        29.88S HX 100
SAINT SIMONS   CLOUDY    84  75  74 E12       29.87S HX  92

$$

SCZ027-028-034-036>038-045-046-048>050-GAZ119-141-312000-
...LAKE AND SUPPLEMENTAL COASTAL OBSERVATIONS...

STATION/POSITION TIME  TEMP    WIND        PRES    WAVE   SWELL
                       AIR SEA DIR/SP/G            HT/PER HT/PER/DIR
                 (UTC) (F)     (DEG/KT/KT) (MB)    (FT/S) (FT/S/D)
WINYAH BAY       NOT AVBL
LAKE MURRAY      1800   89     140/  4/  7 1012.9F
ACE BASIN NERRS  NOT AVBL
FORT PULASKI     1800   79 84   60/ 14/ 17 1013.2F
SAPELO ISLAND    1800   86      10/  4     1012.0S

$$

ANZ835-935-AMZ111-154-330-350-352-354-370-450-454-472-312000-
...C-MAN AND BUOY OBSERVATIONS...

STATION/POSITION TIME  TEMP    WIND        PRES    WAVE   SWELL
                       AIR SEA DIR/SP/G            HT/PER HT/PER/DIR
                 (UTC) (F)     (DEG/KT/KT) (MB)    (FT/S) (FT/S/D)
BUOY 41004       1850   80 85  110/ 17/ 21 1012.3F   4/10   3/ 90/10
BUOY 41008       1850   81 85   40/  6/  8 1011.8F   4/ 7   3/150/ 7
FOLLY BEACH CMAN 1800   77      80/ 22/ 25 1014.1F
CAPERS NEARSHORE 1808   78 83   90/ 16/ 19 1013.9F
FRIPP NEARSHORE  1808   81 84   80/ 17/ 21 1012.3F


STATION/POSITION TIME  TEMP    WIND        PRES    WAVE   SWELL
                       AIR SEA DIR/SP/G            HT/PER HT/PER/DIR
                 (UTC) (F)     (DEG/KT/KT) (MB)    (FT/S) (FT/S/D)
5E ST. MARYS GA  1831      85                N/A     4/ 7   2/100/12
FRYING PAN BUOY  1800   81 84  190/  8/ 12 1014.5F
BUOY 41025       1750   82 85   20/ 10/ 12 1014.1    4/11   3/120/11
CAPE LOOKOUT NC  1800   82      80/  4/  5 1014.1F
BUOY 41002       1850   78 84  240/ 10/ 12 1015.0F   4/11   3/ 50/11
BUOY 41010       NOT AVBL
ST AUGUSTINE FL  1900   84 83  250/  8/  9 1013.0F


$$




USA.gov is the U.S. government's official web portal to all federal, state and local government web resources and services.